EW9065 Weather Reports


time (UTC)temp
C
wind
direction
speed
KPH
gust
KPH
rain 1hr
cm
rain 24hr
cm
rain mn
cm
humidity
%
barometer
mb
20210613224615 23 57 0.0 0.0 0.00 0.00 0.00 63 1005.0
20210613223048 23 57 0.0 0.0 0.00 0.00 0.00 62 1005.1
20210613221602 24 57 0.0 0.0 0.00 0.00 0.00 59 1005.1
20210613220040 25 95 0.0 0.0 0.00 0.00 0.00 57 1005.0
20210613214553 25 81 0.0 0.0 0.00 0.00 0.00 57 1005.1
20210613213118 25 59 0.0 0.0 0.00 0.00 0.00 55 1005.1
20210613211552 25 68 0.0 0.0 0.00 0.00 0.00 55 1005.1
20210613210042 26 65 0.0 0.0 0.00 0.00 0.00 53 1005.3
20210613204625 27 57 0.0 0.0 0.00 0.00 0.00 48 1005.4
20210613203034 28 175 0.0 0.0 0.00 0.00 0.00 46 1005.2
20210613201532 28 112 0.0 0.0 0.00 0.00 0.00 49 1005.4
20210613200116 28 29 0.0 0.0 0.00 0.00 0.00 50 1005.4
20210613194602 28 82 0.0 0.0 0.00 0.00 0.00 46 1005.4
20210613193038 27 22 0.0 0.0 0.00 0.00 0.00 45 1005.6
20210613191531 27 221 0.0 0.0 0.00 0.00 0.00 47 1005.6
20210613190045 27 94 0.0 0.0 0.00 0.00 0.00 43 1005.7
20210613184605 28 81 0.0 0.0 0.00 0.00 0.00 44 1005.8
20210613183107 28 108 0.0 0.0 0.00 0.00 0.00 47 1005.7
20210613181622 27 63 0.0 0.0 0.00 0.00 0.00 52 1005.9
20210613180056 27 266 0.0 0.0 0.00 0.00 0.00 42 1005.8
20210613174635 27 77 0.0 0.0 0.00 0.15 0.00 48 1006.0
20210613173034 28 147 0.0 0.0 0.00 0.15 0.00 43 1006.1
20210613171528 27 76 0.0 0.0 0.00 0.15 0.00 48 1006.2
20210613170009 27 148 0.0 0.0 0.00 0.15 0.00 47 1006.2
20210613164507 27 40 0.0 0.0 0.00 0.38 0.00 47 1006.2
20210613163007 27 196 0.0 0.0 0.00 0.38 0.00 48 1006.4
20210613161647 26 218 0.0 0.0 0.00 0.38 0.00 50 1006.5
20210613160218 25 106 0.0 0.0 0.00 0.38 0.00 58 1006.5
20210613154625 25 86 0.0 0.0 0.00 0.46 0.00 62 1006.6
20210613153219 25 86 0.0 0.0 0.00 0.46 0.00 55 1006.8
20210613151709 25 105 0.0 0.0 0.00 0.46 0.00 53 1006.8
20210613150142 25 86 0.0 0.0 0.00 0.46 0.00 53 1006.8
20210613144553 23 128 0.0 0.0 0.00 0.51 0.00 57 1006.8
20210613143115 23 181 0.0 0.0 0.00 0.51 0.00 61 1006.7
20210613141628 22 183 0.0 0.0 0.00 0.51 0.00 64 1006.8
20210613140104 21 139 0.0 0.0 0.00 0.51 0.00 65 1006.9
20210613134635 21 197 0.0 0.0 0.00 0.56 0.00 69 1006.9
20210613133038 20 190 0.0 0.0 0.00 0.56 0.00 70 1006.9
20210613131532 20 148 0.0 0.0 0.00 0.56 0.00 76 1006.9
20210613130051 19 105 0.0 0.0 0.00 0.56 0.00 75 1006.9
20210613124525 18 109 0.0 0.0 0.00 0.61 0.00 79 1006.9
20210613123012 17 103 0.0 0.0 0.00 0.61 0.00 84 1006.9
20210613121507 17 103 0.0 0.0 0.00 0.61 0.00 88 1007.0
20210613120009 16 103 0.0 0.0 0.00 0.61 0.00 87 1006.9
20210613114749 16 90 0.0 0.0 0.00 0.69 0.00 88 1006.9
20210613113108 15 90 0.0 0.0 0.00 0.69 0.00 90 1006.8
20210613111634 15 71 0.0 0.0 0.00 0.69 0.00 91 1006.8
20210613110209 14 71 0.0 0.0 0.00 0.69 0.00 92 1006.7
20210613104632 13 71 0.0 0.0 0.00 0.76 0.00 93 1006.7
20210613103110 13 71 0.0 0.0 0.00 0.76 0.00 93 1006.5
20210613101644 13 71 0.0 0.0 0.00 0.76 0.00 93 1006.5
20210613100149 12 71 0.0 0.0 0.00 0.76 0.00 93 1006.4
20210613094601 12 71 0.0 0.0 0.00 0.81 0.00 93 1006.2
20210613093114 12 71 0.0 0.0 0.00 0.81 0.00 93 1006.0
20210613091615 12 71 0.0 0.0 0.00 0.81 0.00 93 1005.9
20210613090116 12 71 0.0 0.0 0.00 0.81 0.00 92 1005.9
20210613084657 12 71 0.0 0.0 0.00 0.86 0.00 92 1005.9
20210613083103 12 71 0.0 0.0 0.00 0.86 0.00 92 1005.8
20210613081538 12 71 0.0 0.0 0.00 0.86 0.00 92 1005.8
20210613080051 12 71 0.0 0.0 0.00 0.86 0.00 92 1005.8
20210613074543 12 71 0.0 0.0 0.00 0.89 0.00 91 1005.9
20210613073038 13 71 0.0 0.0 0.00 0.89 0.00 91 1005.8
20210613071552 12 71 0.0 0.0 0.00 0.89 0.00 91 1005.9
20210613070108 12 71 0.0 0.0 0.00 0.89 0.00 90 1005.8
20210613064545 13 71 0.0 0.0 0.00 0.91 0.00 90 1005.9
20210613063029 13 71 0.0 0.0 0.00 0.91 0.00 90 1006.1
20210613061524 13 71 0.0 0.0 0.00 0.91 0.00 89 1006.0
20210613060023 13 71 0.0 0.0 0.00 0.91 0.00 88 1006.1
20210613054531 13 71 0.0 0.0 0.00 0.91 0.00 88 1006.1
20210613053018 13 71 0.0 0.0 0.00 0.91 0.00 87 1006.3
20210613051530 13 71 0.0 0.0 0.00 0.91 0.00 87 1006.4
20210613050016 13 71 0.0 0.0 0.00 0.91 0.00 86 1006.3
20210613044515 13 71 0.0 0.0 0.00 0.91 0.00 85 1006.2
20210613043016 14 71 0.0 0.0 0.00 0.91 0.00 85 1006.2
20210613041524 14 71 0.0 0.0 0.00 0.91 0.00 84 1006.2
20210613040042 14 71 0.0 0.0 0.00 0.91 0.00 84 1006.2
20210613034535 15 71 0.0 0.0 0.00 0.91 0.91 84 1006.1
20210613033023 15 71 0.0 0.0 0.00 0.91 0.91 86 1006.1
20210613031513 15 71 0.0 0.0 0.00 0.91 0.91 87 1006.1
20210613030018 15 71 0.0 0.0 0.00 0.91 0.91 87 1005.9
20210613024511 15 71 0.0 0.0 0.00 0.91 0.91 86 1005.9
20210613023027 15 71 0.0 0.0 0.00 0.91 0.91 86 1005.9
20210613021538 15 71 0.0 0.0 0.00 0.91 0.91 84 1005.8
20210613020004 15 71 0.0 0.0 0.00 0.91 0.91 85 1005.7
20210613014507 16 71 0.0 0.0 0.00 0.91 0.91 84 1005.6
20210613013004 16 71 0.0 0.0 0.00 0.91 0.91 85 1005.5
20210613011503 16 71 0.0 0.0 0.00 0.91 0.91 83 1005.2
20210613010002 16 71 0.0 0.0 0.00 0.91 0.91 83 1005.1
20210613004505 17 71 0.0 0.0 0.00 0.91 0.91 81 1004.8
20210613003001 17 71 0.0 0.0 0.00 0.91 0.91 79 1004.7
20210613001501 17 71 0.0 0.0 0.00 0.91 0.91 77 1004.6
20210613000237 18 71 0.0 0.0 0.00 0.91 0.91 77 1004.7
20210612234629 18 71 0.0 0.0 0.00 0.91 0.91 77 1004.7
20210612233129 18 71 0.0 0.0 0.00 0.91 0.91 74 1004.6
20210612231703 19 61 0.0 0.0 0.00 0.91 0.91 74 1004.6
20210612230135 20 61 0.0 0.0 0.00 0.91 0.91 73 1004.6